Orbital Elements at Epoch 2459200.5 (2020-Dec-17.0) TDB
Reference: JPL 19 (heliocentric ecliptic J2000)
Element | Value | Uncertainty (1-sigma) | Units |
e | .1349374104428551 | 3.0524e-08 | |
a | 2.54408296473157 | 9.853e-09 | au |
q | 2.200790997518911 | 7.6193e-08 | au |
i | 2.58066897630237 | 5.9171e-06 | deg |
node | 348.7212522769229 | 7.9976e-05 | deg |
peri | 85.19525307504566 | 8.422e-05 | deg |
M | 33.08898976434453 | 2.4839e-05 | deg |
tp | 2459064.268876282441 (2020-Aug-02.76887628) | 0.00010219 | TDB |
period | 1482.160830161351 4.06 | 8.6104e-06 2.357e-08 | d yr |
n | .2428886209068214 | 1.411e-09 | deg/d |
Q | 2.88737493194423 | 1.1183e-08 | au |
|
| | Orbit Determination Parameters
Additional Information
|